This is the latest recevied weather packets stored in our database for station/object N7CEE-2. If no packets are shown the sender has not sent any weather packets the latest 10 day(s).
| Time | Temp. | Humidity | Pressure | Rain* | Wind** | Luminosity | Snow |
|---|---|---|---|---|---|---|---|
| 1777365283 | 15.56° C | 40% | 1016.8 hPa | 0 mm | - | 0 W/m² | - |
| 1777364977 | 15.56° C | 38% | 1016.6 hPa | 0 mm | - | 0 W/m² | - |
| 1777364673 | 16.11° C | 37% | 1016.6 hPa | 0 mm | - | 0 W/m² | - |
| 1777364368 | 16.11° C | 36% | 1016.9 hPa | 0 mm | - | 0 W/m² | - |
| 1777364065 | 16.11° C | 39% | 1016.8 hPa | 0 mm | - | 0 W/m² | - |
| 1777363761 | 15.56° C | 39% | 1016.8 hPa | 0 mm | - | 0 W/m² | - |
| 1777363459 | 16.11° C | 38% | 1016.8 hPa | 0 mm | - | 0 W/m² | - |
| 1777363156 | 16.11° C | 38% | 1016.8 hPa | 0 mm | - | 0 W/m² | - |
| 1777362852 | 16.11° C | 38% | 1016.6 hPa | 0 mm | - | 0 W/m² | - |
| 1777362550 | 16.11° C | 38% | 1016.6 hPa | 0 mm | - | 0 W/m² | - |
| 1777362248 | 16.11° C | 37% | 1016.8 hPa | 0 mm | - | 0 W/m² | - |
| 1777361944 | 16.11° C | 37% | 1016.9 hPa | 0 mm | - | 0 W/m² | - |
| 1777361641 | 16.67° C | 36% | 1016.9 hPa | 0 mm | - | 0 W/m² | - |
| 1777361339 | 16.67° C | 35% | 1016.9 hPa | 0 mm | - | 0 W/m² | - |
| 1777361036 | 16.67° C | 35% | 1016.8 hPa | 0 mm | - | 0 W/m² | - |
| 1777360734 | 16.67° C | 36% | 1016.8 hPa | 0 mm | - | 0 W/m² | - |
| 1777360431 | 17.22° C | 34% | 1017 hPa | 0 mm | - | 0 W/m² | - |
| 1777360128 | 17.22° C | 34% | 1016.8 hPa | 0 mm | - | 0 W/m² | - |
| 1777359825 | 17.22° C | 34% | 1016.9 hPa | 0 mm | - | 0 W/m² | - |
| 1777359522 | 17.78° C | 33% | 1016.6 hPa | 0 mm | - | 0 W/m² | - |
| 1777359218 | 17.78° C | 34% | 1016.6 hPa | 0 mm | - | 0 W/m² | - |
| 1777358916 | 17.78° C | 33% | 1016.9 hPa | 0 mm | - | 0 W/m² | - |
| 1777358613 | 17.78° C | 34% | 1016.5 hPa | 0 mm | - | 0 W/m² | - |
| 1777358310 | 17.22° C | 33% | 1016.8 hPa | 0 mm | - | 0 W/m² | - |
| 1777358008 | 18.33° C | 32% | 1016.6 hPa | 0 mm | - | 0 W/m² | - |
* Rain latest hour (hover to see other rain measurements)
** Current wind speed in m/s (hover to see current wind gust speed)